Date String (YYYY-MM-DD hh:mm:ss) UTC,Instrument flags,Ambient pressure (hPa),Sample flow (lpm),Bypass flow (lpm),Sample temperature (°C),Ambient temperature (°C),ASC tube jacket temperature (°C),LED temperature (°C),Box temperature (°C),Sample RH (%),Span deviation,Mass concentration (μg/m³),Mass concentration (μg/m³),Mass concentration (μg/m³)
DateTimeUTC,F1_M11,P_M11,Q1_M11,Q2_M11,T1_M11,T2_M11,T3_M11,T4_M11,T5_M11,U1_M11,ZSPAN_M11,X0_M11,X2_M11,X1_M11
2022-10-24 23:00:00,,0820.3,4.99,0.00,25.1,23.5,00.0,34.0,27.0,08.3,0000.0,0003.72,0001.70,0001.32
2022-10-24 23:01:00,,0820.3,5.00,0.00,25.1,23.5,00.0,34.0,26.9,08.3,0000.0,0003.64,0001.67,0001.32
2022-10-24 23:02:00,,0820.3,5.00,0.00,25.1,23.5,00.0,34.0,26.9,08.3,0000.0,0003.68,0001.68,0001.33
2022-10-24 23:03:00,,0820.3,5.00,0.00,25.1,23.5,00.0,34.0,26.9,08.3,0000.0,0003.03,0001.66,0001.33
2022-10-24 23:04:00,,0820.4,5.01,0.00,25.1,23.5,00.0,34.0,26.9,08.2,0000.0,0002.87,0001.60,0001.34
2022-10-24 23:05:00,,0820.3,5.01,0.00,25.1,23.5,00.0,34.0,27.0,08.3,0000.0,0002.84,0001.61,0001.35
2022-10-24 23:06:00,,0820.3,5.01,0.00,25.1,23.5,00.0,34.0,27.0,08.2,0000.0,0002.71,0001.63,0001.35
2022-10-24 23:07:00,,0820.3,5.00,0.00,25.1,23.5,00.0,34.0,26.9,08.2,0000.0,0002.69,0001.67,0001.36
2022-10-24 23:08:00,,0820.4,4.99,0.00,25.1,23.5,00.0,34.0,26.9,08.2,0000.0,0002.73,0001.71,0001.37
2022-10-24 23:09:00,,0820.4,4.99,0.00,25.1,23.4,00.0,34.0,26.8,08.3,0000.0,0003.78,0001.73,0001.37
2022-10-24 23:10:00,,0820.5,4.99,0.00,25.1,23.5,00.0,34.0,26.9,08.3,0000.0,0004.09,0001.78,0001.38
2022-10-24 23:11:00,,0820.5,5.01,0.00,25.1,23.5,00.0,34.0,26.9,08.3,0000.0,0004.20,0001.81,0001.40
2022-10-24 23:12:00,,0820.5,5.00,0.00,25.1,23.5,00.0,34.0,27.0,08.3,0000.0,0004.37,0001.84,0001.41
2022-10-24 23:13:00,,0820.6,5.00,0.00,25.1,23.5,00.0,34.0,26.9,08.3,0000.0,0004.48,0001.89,0001.42
2022-10-24 23:14:00,,0820.6,5.00,0.00,25.1,23.5,00.0,34.0,26.9,08.3,0000.0,0004.72,0001.94,0001.43
2022-10-24 23:15:00,,0820.6,5.00,0.00,25.1,23.5,00.0,34.0,26.9,08.3,0000.0,0005.14,0002.00,0001.44
2022-10-24 23:16:00,,0820.6,5.00,0.00,25.1,23.5,00.0,34.0,27.0,08.2,0000.0,0005.19,0001.99,0001.44
2022-10-24 23:17:00,,0820.6,5.00,0.00,25.1,23.6,00.0,34.0,27.0,08.2,0000.0,0005.16,0001.98,0001.46
2022-10-24 23:18:00,,0820.6,5.00,0.00,25.1,23.6,00.0,34.0,27.0,08.3,0000.0,0005.05,0001.97,0001.46
2022-10-24 23:19:00,,0820.6,5.00,0.00,25.1,23.6,00.0,34.0,27.0,08.3,0000.0,0005.05,0001.96,0001.48
2022-10-24 23:20:00,,0820.6,5.00,0.00,25.1,23.6,00.0,34.0,27.1,08.3,0000.0,0004.46,0002.00,0001.50
2022-10-24 23:21:00,,0820.6,5.00,0.00,25.1,23.7,00.0,34.0,27.1,08.3,0000.0,0004.33,0002.01,0001.51
2022-10-24 23:22:00,,0820.6,5.00,0.00,25.2,23.7,00.0,34.0,27.1,08.2,0000.0,0004.23,0001.99,0001.53
2022-10-24 23:23:00,,0820.6,5.00,0.00,25.2,23.7,00.0,34.0,27.1,08.2,0000.0,0004.12,0001.98,0001.54
2022-10-24 23:24:00,,0820.6,5.00,0.00,25.2,23.7,00.0,34.0,27.1,08.2,0000.0,0004.02,0001.96,0001.56
2022-10-24 23:25:00,,0820.6,5.01,0.00,25.2,23.7,00.0,34.0,27.1,08.2,0000.0,0003.96,0001.93,0001.56
2022-10-24 23:26:00,,0820.6,5.00,0.00,25.2,23.7,00.0,34.0,27.1,08.2,0000.0,0004.91,0001.92,0001.57
2022-10-24 23:27:00,,0820.6,5.00,0.00,25.2,23.7,00.0,34.0,27.0,08.2,0000.0,0005.15,0001.99,0001.59
2022-10-24 23:28:00,,0820.6,5.00,0.00,25.2,23.7,00.0,34.0,27.1,08.2,0000.0,0005.22,0002.04,0001.60
2022-10-24 23:29:00,,0820.6,5.00,0.00,25.2,23.6,00.0,34.0,27.0,08.2,0000.0,0005.17,0002.06,0001.61
2022-10-24 23:30:00,,0820.6,5.00,0.00,25.2,23.6,00.0,34.0,27.0,08.2,0000.0,0005.08,0002.04,0001.60
2022-10-24 23:31:00,,0820.6,5.00,0.00,25.2,23.6,00.0,34.0,27.1,08.2,0000.0,0005.03,0002.02,0001.60
2022-10-24 23:32:00,,0820.6,5.00,0.00,25.2,23.6,00.0,34.0,27.0,08.2,0000.0,0004.57,0001.99,0001.60
2022-10-24 23:33:00,,0820.6,5.00,0.00,25.2,23.5,00.0,34.0,26.9,08.2,0000.0,0004.55,0001.98,0001.60
2022-10-24 23:34:00,,0820.6,5.00,0.00,25.1,23.5,00.0,34.0,27.0,08.2,0000.0,0004.59,0002.00,0001.60
2022-10-24 23:35:00,,0820.6,5.01,0.00,25.2,23.5,00.0,34.0,27.0,08.3,0000.0,0004.58,0002.00,0001.59
2022-10-24 23:36:00,,0820.6,5.00,0.00,25.2,23.6,00.0,34.0,27.1,08.3,0000.0,0004.55,0001.98,0001.59
2022-10-24 23:37:00,,0820.6,5.00,0.00,25.2,23.6,00.0,34.0,27.0,08.3,0000.0,0003.33,0001.99,0001.59
2022-10-24 23:38:00,,0820.6,4.99,0.00,25.2,23.6,00.0,34.0,27.0,08.3,0000.0,0003.26,0002.00,0001.59
2022-10-24 23:39:00,,0820.6,5.00,0.00,25.1,23.6,00.0,34.0,26.9,08.3,0000.0,0003.23,0001.97,0001.56
2022-10-24 23:40:00,,0820.7,5.00,0.00,25.1,23.6,00.0,34.0,27.0,08.3,0000.0,0003.39,0001.93,0001.56
2022-10-24 23:41:00,,0820.7,5.00,0.00,25.1,23.6,00.0,34.0,27.0,08.3,0000.0,0003.52,0001.96,0001.55
2022-10-24 23:42:00,,0820.6,5.01,0.00,25.2,23.6,00.0,34.0,27.1,08.3,0000.0,0003.50,0001.94,0001.56
2022-10-24 23:43:00,,0820.6,5.00,0.00,25.1,23.6,00.0,34.0,27.0,08.3,0000.0,0003.52,0001.96,0001.56
2022-10-24 23:44:00,,0820.6,5.00,0.00,25.1,23.6,00.0,34.0,26.9,08.3,0000.0,0003.50,0001.95,0001.55
2022-10-24 23:45:00,,0820.6,5.00,0.00,25.1,23.5,00.0,34.0,26.8,08.3,0000.0,0003.34,0001.89,0001.53
2022-10-24 23:46:00,,0820.6,5.00,0.00,25.1,23.5,00.0,34.0,26.8,08.3,0000.0,0004.37,0001.87,0001.53
2022-10-24 23:47:00,,0820.6,5.00,0.00,25.1,23.4,00.0,34.0,26.8,08.3,0000.0,0004.55,0001.87,0001.52
2022-10-24 23:48:00,,0820.7,5.00,0.00,25.1,23.4,00.0,34.0,26.8,08.3,0000.0,0004.43,0001.89,0001.52
2022-10-24 23:49:00,,0820.7,5.00,0.00,25.1,23.4,00.0,34.0,26.9,08.3,0000.0,0004.20,0001.82,0001.53
2022-10-24 23:50:00,,0820.6,5.01,0.00,25.1,23.5,00.0,34.0,26.9,08.3,0000.0,0004.09,0001.82,0001.55
2022-10-24 23:51:00,,0820.7,5.00,0.00,25.1,23.5,00.0,33.9,27.0,08.3,0000.0,0003.88,0001.82,0001.55
2022-10-24 23:52:00,,0820.6,5.00,0.00,25.1,23.5,00.0,33.9,26.9,08.3,0000.0,0004.54,0001.82,0001.54
2022-10-24 23:53:00,,0820.7,5.00,0.00,25.1,23.5,00.0,34.0,26.9,08.3,0000.0,0004.71,0001.81,0001.54
2022-10-24 23:54:00,,0820.6,5.00,0.00,25.1,23.5,00.0,34.0,26.9,08.3,0000.0,0004.63,0001.78,0001.54
2022-10-24 23:55:00,,0820.6,5.00,0.00,25.1,23.4,00.0,33.9,26.9,08.3,0000.0,0004.66,0001.78,0001.54
2022-10-24 23:56:00,,0820.6,5.00,0.00,25.1,23.4,00.0,33.9,26.8,08.3,0000.0,0004.81,0001.85,0001.57
2022-10-24 23:57:00,,0820.6,5.00,0.00,25.0,23.4,00.0,33.9,26.8,08.4,0000.0,0003.93,0001.91,0001.58
2022-10-24 23:58:00,,0820.6,5.00,0.00,25.0,23.4,00.0,33.9,26.7,08.4,0000.0,0003.99,0001.91,0001.58
2022-10-24 23:59:00,,0820.6,5.02,0.00,25.0,23.4,00.0,33.9,26.8,08.4,0000.0,0004.83,0001.89,0001.58
